Time,TemperatureF,DewpointF,PressureIn,WindDirection,WindDirectionDegrees,WindSpeedMPH,WindSpeedGustMPH,Humidity,HourlyPrecipIn,Conditions,Clouds,dailyrainin,SoftwareType,DateUTC
2013-06-06 00:03:00,59.0,-99.9,-100.00,North,0,0.0,0.0,-999,0.00,,,0.00,,2013-06-06 04:03:00,
2013-06-06 00:13:00,59.0,-99.9,-100.00,North,0,0.0,0.0,-999,0.00,,,0.00,,2013-06-06 04:13:00,
2013-06-06 00:23:00,59.0,-99.9,-100.00,North,1,0.0,3.0,-999,0.00,,,0.00,,2013-06-06 04:23:00,
2013-06-06 00:33:00,57.0,-99.9,-100.00,North,1,0.0,1.0,-999,0.00,,,0.00,,2013-06-06 04:33:00,
2013-06-06 00:42:00,57.0,-99.9,-100.00,North,1,0.0,1.0,-999,0.00,,,0.00,,2013-06-06 04:42:00,
2013-06-06 00:53:00,57.0,-99.9,-100.00,North,1,0.0,0.0,-999,0.00,,,0.00,,2013-06-06 04:53:00,
2013-06-06 01:02:00,56.0,-99.9,-100.00,North,1,0.0,0.0,-999,0.00,,,0.00,,2013-06-06 05:02:00,
2013-06-06 01:12:00,56.0,-99.9,-100.00,North,1,0.0,0.0,-999,0.00,,,0.00,,2013-06-06 05:12:00,
2013-06-06 01:23:00,55.0,-99.9,-100.00,North,1,0.0,0.0,-999,0.00,,,0.00,,2013-06-06 05:23:00,
2013-06-06 01:32:00,55.0,-99.9,-100.00,North,1,0.0,0.0,-999,0.00,,,0.00,,2013-06-06 05:32:00,
2013-06-06 01:42:00,55.0,-99.9,-100.00,North,1,0.0,0.0,-999,0.00,,,0.00,,2013-06-06 05:42:00,
2013-06-06 01:52:00,54.0,-99.9,-100.00,North,1,0.0,0.0,-999,0.00,,,0.00,,2013-06-06 05:52:00,
2013-06-06 02:02:00,54.0,-99.9,-100.00,North,1,0.0,1.0,-999,0.00,,,0.00,,2013-06-06 06:02:00,
2013-06-06 02:12:00,54.0,-99.9,-100.00,North,1,0.0,1.0,-999,0.00,,,0.00,,2013-06-06 06:12:00,
2013-06-06 02:22:00,53.0,-99.9,-100.00,North,1,0.0,0.0,-999,0.00,,,0.00,,2013-06-06 06:22:00,
2013-06-06 02:33:00,53.0,-99.9,-100.00,North,1,0.0,0.0,-999,0.00,,,0.00,,2013-06-06 06:33:00,
2013-06-06 02:42:00,53.0,-99.9,-100.00,North,1,0.0,0.0,-999,0.00,,,0.00,,2013-06-06 06:42:00,
2013-06-06 02:52:00,53.0,-99.9,-100.00,North,1,0.0,0.0,-999,0.00,,,0.00,,2013-06-06 06:52:00,
2013-06-06 03:02:00,52.0,-99.9,-100.00,North,1,0.0,0.0,-999,0.00,,,0.00,,2013-06-06 07:02:00,
2013-06-06 03:12:00,52.0,-99.9,-100.00,North,1,0.0,0.0,-999,0.00,,,0.00,,2013-06-06 07:12:00,
2013-06-06 03:22:00,52.0,-99.9,-100.00,North,1,0.0,0.0,-999,0.00,,,0.00,,2013-06-06 07:22:00,
2013-06-06 03:33:00,52.0,-99.9,-100.00,North,1,0.0,0.0,-999,0.00,,,0.00,,2013-06-06 07:33:00,
2013-06-06 03:42:00,52.0,-99.9,-100.00,North,1,0.0,0.0,-999,0.00,,,0.00,,2013-06-06 07:42:00,
2013-06-06 03:53:00,51.0,-99.9,-100.00,North,1,0.0,0.0,-999,0.00,,,0.00,,2013-06-06 07:53:00,
2013-06-06 04:02:00,51.0,-99.9,-100.00,North,1,0.0,0.0,-999,0.00,,,0.00,,2013-06-06 08:02:00,
2013-06-06 04:12:00,51.0,-99.9,-100.00,North,1,0.0,0.0,-999,0.00,,,0.00,,2013-06-06 08:12:00,
2013-06-06 04:22:00,51.0,-99.9,-100.00,North,1,0.0,0.0,-999,0.00,,,0.00,,2013-06-06 08:22:00,
2013-06-06 04:32:00,50.0,-99.9,-100.00,North,1,0.0,0.0,-999,0.00,,,0.00,,2013-06-06 08:32:00,
2013-06-06 04:42:00,50.0,-99.9,-100.00,North,1,0.0,0.0,-999,0.00,,,0.00,,2013-06-06 08:42:00,
2013-06-06 04:52:00,50.0,-99.9,-100.00,North,1,0.0,0.0,-999,0.00,,,0.00,,2013-06-06 08:52:00,
2013-06-06 05:02:00,50.0,-99.9,-100.00,North,1,0.0,0.0,-999,0.00,,,0.00,,2013-06-06 09:02:00,
2013-06-06 05:12:00,50.0,-99.9,-100.00,North,1,0.0,0.0,-999,0.00,,,0.00,,2013-06-06 09:12:00,
2013-06-06 05:22:00,50.0,-99.9,-100.00,North,1,0.0,0.0,-999,0.00,,,0.00,,2013-06-06 09:22:00,
2013-06-06 05:33:00,50.0,-99.9,-100.00,North,1,0.0,0.0,-999,0.00,,,0.00,,2013-06-06 09:33:00,
2013-06-06 05:43:00,50.0,-99.9,-100.00,North,1,0.0,0.0,-999,0.00,,,0.00,,2013-06-06 09:43:00,
2013-06-06 05:53:00,50.0,-99.9,-100.00,North,1,0.0,0.0,-999,0.00,,,0.00,,2013-06-06 09:53:00,
2013-06-06 06:03:00,50.0,-99.9,-100.00,North,1,0.0,0.0,-999,0.00,,,0.00,,2013-06-06 10:03:00,
2013-06-06 06:12:00,50.0,-99.9,-100.00,North,1,0.0,0.0,-999,0.00,,,0.00,,2013-06-06 10:12:00,
2013-06-06 06:23:00,50.0,-99.9,-100.00,North,1,0.0,0.0,-999,0.00,,,0.00,,2013-06-06 10:23:00,
2013-06-06 06:33:00,51.0,-99.9,-100.00,North,1,0.0,0.0,-999,0.00,,,0.00,,2013-06-06 10:33:00,
2013-06-06 06:42:00,51.0,-99.9,-100.00,North,1,0.0,0.0,-999,0.00,,,0.00,,2013-06-06 10:42:00,
2013-06-06 06:53:00,52.0,-99.9,-100.00,North,1,0.0,0.0,-999,0.00,,,0.00,,2013-06-06 10:53:00,
2013-06-06 07:03:00,54.0,-99.9,-100.00,North,0,1.0,3.0,-999,0.00,,,0.00,,2013-06-06 11:03:00,
2013-06-06 07:12:00,54.0,-99.9,-100.00,North,0,1.0,3.0,-999,0.00,,,0.00,,2013-06-06 11:12:00,
2013-06-06 07:23:00,55.0,-99.9,-100.00,North,0,0.0,3.0,-999,0.00,,,0.00,,2013-06-06 11:23:00,
2013-06-06 07:32:00,58.0,-99.9,-100.00,North,0,2.0,5.0,-999,0.00,,,0.00,,2013-06-06 11:32:00,
2013-06-06 07:42:00,58.0,-99.9,-100.00,North,0,2.0,5.0,-999,0.00,,,0.00,,2013-06-06 11:42:00,
2013-06-06 07:52:00,59.0,-99.9,-100.00,North,1,3.0,6.0,-999,0.00,,,0.00,,2013-06-06 11:52:00,
2013-06-06 08:03:00,61.0,-99.9,-100.00,North,0,2.0,9.0,-999,0.00,,,0.00,,2013-06-06 12:03:00,
2013-06-06 08:23:00,62.0,-99.9,-100.00,North,0,2.0,6.0,-999,0.00,,,0.00,,2013-06-06 12:23:00,
2013-06-06 08:33:00,64.0,-99.9,-100.00,North,1,3.0,9.0,-999,0.00,,,0.00,,2013-06-06 12:33:00,
2013-06-06 08:53:00,64.0,-99.9,-100.00,North,0,1.0,7.0,-999,0.00,,,0.00,,2013-06-06 12:53:00,
2013-06-06 09:03:00,63.0,-99.9,-100.00,North,0,3.0,7.0,-999,0.00,,,0.00,,2013-06-06 13:03:00,
2013-06-06 09:13:00,63.0,-99.9,-100.00,North,0,3.0,7.0,-999,0.00,,,0.00,,2013-06-06 13:13:00,
2013-06-06 09:23:00,64.0,-99.9,-100.00,North,0,1.0,6.0,-999,0.00,,,0.00,,2013-06-06 13:23:00,
2013-06-06 09:33:00,68.0,-99.9,-100.00,North,0,1.0,6.0,-999,0.00,,,0.00,,2013-06-06 13:33:00,
2013-06-06 09:53:00,70.0,-99.9,-100.00,North,0,2.0,6.0,-999,0.00,,,0.00,,2013-06-06 13:53:00,
2013-06-06 10:03:00,73.0,-99.9,-100.00,North,3,5.0,9.0,-999,0.00,,,0.00,,2013-06-06 14:03:00,
2013-06-06 10:23:00,73.0,-99.9,-100.00,North,1,1.0,6.0,-999,0.00,,,0.00,,2013-06-06 14:23:00,
2013-06-06 10:33:00,73.0,-99.9,-100.00,North,0,2.0,5.0,-999,0.00,,,0.00,,2013-06-06 14:33:00,
2013-06-06 10:53:00,74.0,-99.9,-100.00,North,0,1.0,7.0,-999,0.00,,,0.00,,2013-06-06 14:53:00,
2013-06-06 11:03:00,75.0,-99.9,-100.00,North,0,1.0,6.0,-999,0.00,,,0.00,,2013-06-06 15:03:00,
2013-06-06 11:23:00,74.0,-99.9,-100.00,North,0,3.0,7.0,-999,0.00,,,0.00,,2013-06-06 15:23:00,
2013-06-06 11:33:00,73.0,-99.9,-100.00,North,0,2.0,6.0,-999,0.00,,,0.00,,2013-06-06 15:33:00,
2013-06-06 11:53:00,72.0,-99.9,-100.00,North,0,1.0,8.0,-999,0.00,,,0.00,,2013-06-06 15:53:00,
2013-06-06 12:03:00,71.0,-99.9,-100.00,North,0,2.0,8.0,-999,0.00,,,0.00,,2013-06-06 16:03:00,
2013-06-06 12:13:00,71.0,-99.9,-100.00,North,0,2.0,8.0,-999,0.00,,,0.00,,2013-06-06 16:13:00,
2013-06-06 12:23:00,70.0,-99.9,-100.00,North,0,1.0,8.0,-999,0.00,,,0.00,,2013-06-06 16:23:00,
2013-06-06 12:34:00,69.0,-99.9,-100.00,North,0,1.0,10.0,-999,0.00,,,0.00,,2013-06-06 16:34:00,
2013-06-06 12:44:00,69.0,-99.9,-100.00,North,0,1.0,10.0,-999,0.00,,,0.00,,2013-06-06 16:44:00,
2013-06-06 12:53:00,69.0,-99.9,-100.00,North,0,0.0,9.0,-999,0.00,,,0.00,,2013-06-06 16:53:00,
2013-06-06 13:03:00,69.0,-99.9,-100.00,North,0,1.0,10.0,-999,0.00,,,0.00,,2013-06-06 17:03:00,
2013-06-06 13:13:00,69.0,-99.9,-100.00,North,0,1.0,10.0,-999,0.00,,,0.00,,2013-06-06 17:13:00,
2013-06-06 13:23:00,69.0,-99.9,-100.00,North,0,1.0,6.0,-999,0.00,,,0.00,,2013-06-06 17:23:00,
2013-06-06 13:33:00,69.0,-99.9,-100.00,North,0,2.0,9.0,-999,0.00,,,0.00,,2013-06-06 17:33:00,
2013-06-06 13:43:00,69.0,-99.9,-100.00,North,0,2.0,9.0,-999,0.00,,,0.00,,2013-06-06 17:43:00,
2013-06-06 13:53:00,68.0,-99.9,-100.00,North,0,2.0,9.0,-999,0.00,,,0.00,,2013-06-06 17:53:00,
2013-06-06 14:03:00,68.0,-99.9,-100.00,North,1,1.0,7.0,-999,0.00,,,0.00,,2013-06-06 18:03:00,
2013-06-06 14:13:00,68.0,-99.9,-100.00,North,1,1.0,7.0,-999,0.00,,,0.00,,2013-06-06 18:13:00,
2013-06-06 14:23:00,68.0,-99.9,-100.00,North,0,1.0,10.0,-999,0.00,,,0.00,,2013-06-06 18:23:00,
2013-06-06 14:33:00,68.0,-99.9,-100.00,North,0,2.0,8.0,-999,0.00,,,0.00,,2013-06-06 18:33:00,
2013-06-06 14:43:00,68.0,-99.9,-100.00,North,0,2.0,8.0,-999,0.00,,,0.00,,2013-06-06 18:43:00,
2013-06-06 14:53:00,68.0,-99.9,-100.00,North,1,1.0,12.0,-999,0.00,,,0.00,,2013-06-06 18:53:00,
2013-06-06 15:03:00,69.0,-99.9,-100.00,North,0,2.0,12.0,-999,0.00,,,0.00,,2013-06-06 19:03:00,
2013-06-06 15:13:00,69.0,-99.9,-100.00,North,0,2.0,12.0,-999,0.00,,,0.00,,2013-06-06 19:13:00,
2013-06-06 15:23:00,69.0,-99.9,-100.00,North,1,1.0,7.0,-999,0.00,,,0.00,,2013-06-06 19:23:00,
2013-06-06 15:34:00,68.0,-99.9,-100.00,North,0,2.0,10.0,-999,0.00,,,0.00,,2013-06-06 19:34:00,
2013-06-06 15:43:00,68.0,-99.9,-100.00,North,0,2.0,10.0,-999,0.00,,,0.00,,2013-06-06 19:43:00,
2013-06-06 15:53:00,68.0,-99.9,-100.00,North,0,1.0,9.0,-999,0.00,,,0.00,,2013-06-06 19:53:00,
2013-06-06 16:03:00,67.0,-99.9,-100.00,North,0,0.0,6.0,-999,0.00,,,0.00,,2013-06-06 20:03:00,
2013-06-06 16:13:00,67.0,-99.9,-100.00,North,0,0.0,6.0,-999,0.00,,,0.00,,2013-06-06 20:13:00,
2013-06-06 16:23:00,67.0,-99.9,-100.00,North,0,2.0,5.0,-999,0.00,,,0.00,,2013-06-06 20:23:00,
2013-06-06 16:33:00,67.0,-99.9,-100.00,North,0,0.0,6.0,-999,0.00,,,0.00,,2013-06-06 20:33:00,
2013-06-06 16:43:00,67.0,-99.9,-100.00,North,0,0.0,6.0,-999,0.00,,,0.00,,2013-06-06 20:43:00,
2013-06-06 16:53:00,67.0,-99.9,-100.00,North,0,1.0,3.0,-999,0.00,,,0.00,,2013-06-06 20:53:00,
2013-06-06 17:03:00,66.0,-99.9,-100.00,North,0,0.0,2.0,-999,0.00,,,0.00,,2013-06-06 21:03:00,
2013-06-06 17:13:00,66.0,-99.9,-100.00,North,0,0.0,2.0,-999,0.00,,,0.00,,2013-06-06 21:13:00,
2013-06-06 17:23:00,66.0,-99.9,-100.00,North,0,1.0,3.0,-999,0.00,,,0.00,,2013-06-06 21:23:00,
2013-06-06 17:33:00,64.0,-99.9,-100.00,North,0,0.0,0.0,-999,0.00,,,0.00,,2013-06-06 21:33:00,
2013-06-06 17:44:00,64.0,-99.9,-100.00,North,0,0.0,0.0,-999,0.00,,,0.00,,2013-06-06 21:44:00,
2013-06-06 17:53:00,64.0,-99.9,-100.00,North,0,0.0,0.0,-999,0.00,,,0.00,,2013-06-06 21:53:00,
2013-06-06 18:03:00,62.0,-99.9,-100.00,North,0,0.0,0.0,-999,0.00,,,0.00,,2013-06-06 22:03:00,
2013-06-06 18:13:00,62.0,-99.9,-100.00,North,0,0.0,0.0,-999,0.00,,,0.00,,2013-06-06 22:13:00,
2013-06-06 18:23:00,61.0,-99.9,-100.00,North,0,1.0,5.0,-999,0.01,,,0.01,,2013-06-06 22:23:00,
2013-06-06 18:34:00,60.0,-99.9,-100.00,North,0,2.0,6.0,-999,0.02,,,0.02,,2013-06-06 22:34:00,
2013-06-06 18:43:00,60.0,-99.9,-100.00,North,0,2.0,6.0,-999,0.02,,,0.02,,2013-06-06 22:43:00,
2013-06-06 18:53:00,60.0,-99.9,-100.00,NNE,28,2.0,7.0,-999,0.03,,,0.03,,2013-06-06 22:53:00,
2013-06-06 19:03:00,59.0,-99.9,-100.00,North,0,2.0,7.0,-999,0.05,,,0.05,,2013-06-06 23:03:00,
2013-06-06 19:13:00,59.0,-99.9,-100.00,North,0,2.0,7.0,-999,0.05,,,0.05,,2013-06-06 23:13:00,
2013-06-06 19:22:00,59.0,-99.9,-100.00,North,2,3.0,6.0,-999,0.04,,,0.05,,2013-06-06 23:22:00,
2013-06-06 19:33:00,58.0,-99.9,-100.00,North,0,2.0,7.0,-999,0.04,,,0.06,,2013-06-06 23:33:00,
2013-06-06 19:43:00,58.0,-99.9,-100.00,North,0,2.0,7.0,-999,0.04,,,0.06,,2013-06-06 23:43:00,
2013-06-06 19:52:00,58.0,-99.9,-100.00,North,0,1.0,7.0,-999,0.03,,,0.06,,2013-06-06 23:52:00,
2013-06-06 20:02:00,58.0,-99.9,-100.00,North,0,1.0,6.0,-999,0.01,,,0.06,,2013-06-07 00:02:00,
2013-06-06 20:13:00,58.0,-99.9,-100.00,North,0,1.0,6.0,-999,0.01,,,0.06,,2013-06-07 00:13:00,
2013-06-06 20:22:00,58.0,-99.9,-100.00,North,0,0.0,2.0,-999,0.02,,,0.07,,2013-06-07 00:22:00,
2013-06-06 20:32:00,58.0,-99.9,-100.00,North,0,0.0,3.0,-999,0.02,,,0.08,,2013-06-07 00:32:00,
2013-06-06 20:43:00,58.0,-99.9,-100.00,North,0,0.0,3.0,-999,0.02,,,0.08,,2013-06-07 00:43:00,
2013-06-06 20:52:00,58.0,-99.9,-100.00,North,0,1.0,3.0,-999,0.02,,,0.08,,2013-06-07 00:52:00,
2013-06-06 21:03:00,58.0,-99.9,-100.00,North,0,0.0,2.0,-999,0.03,,,0.09,,2013-06-07 01:03:00,
2013-06-06 21:13:00,58.0,-99.9,-100.00,North,0,0.0,2.0,-999,0.03,,,0.09,,2013-06-07 01:13:00,
2013-06-06 21:22:00,58.0,-99.9,-100.00,North,0,1.0,6.0,-999,0.02,,,0.09,,2013-06-07 01:22:00,
2013-06-06 21:33:00,59.0,-99.9,-100.00,North,0,2.0,6.0,-999,0.02,,,0.10,,2013-06-07 01:33:00,
2013-06-06 21:42:00,59.0,-99.9,-100.00,North,0,2.0,6.0,-999,0.02,,,0.10,,2013-06-07 01:42:00,
2013-06-06 21:53:00,59.0,-99.9,-100.00,North,0,0.0,3.0,-999,0.03,,,0.11,,2013-06-07 01:53:00,
2013-06-06 22:02:00,59.0,-99.9,-100.00,North,0,1.0,5.0,-999,0.04,,,0.12,,2013-06-07 02:02:00,
2013-06-06 22:12:00,59.0,-99.9,-100.00,North,0,1.0,5.0,-999,0.04,,,0.12,,2013-06-07 02:12:00,
2013-06-06 22:22:00,59.0,-99.9,-100.00,North,0,0.0,2.0,-999,0.06,,,0.15,,2013-06-07 02:22:00,
2013-06-06 22:32:00,59.0,-99.9,-100.00,North,0,1.0,5.0,-999,0.07,,,0.17,,2013-06-07 02:32:00,
2013-06-06 22:42:00,59.0,-99.9,-100.00,North,0,1.0,5.0,-999,0.07,,,0.17,,2013-06-07 02:42:00,
2013-06-06 22:52:00,59.0,-99.9,-100.00,North,0,0.0,9.0,-999,0.07,,,0.18,,2013-06-07 02:52:00,
2013-06-06 23:02:00,59.0,-99.9,-100.00,North,0,1.0,5.0,-999,0.06,,,0.19,,2013-06-07 03:02:00,
2013-06-06 23:12:00,59.0,-99.9,-100.00,North,0,1.0,5.0,-999,0.06,,,0.19,,2013-06-07 03:12:00,
2013-06-06 23:22:00,59.0,-99.9,-100.00,North,0,1.0,3.0,-999,0.04,,,0.19,,2013-06-07 03:22:00,
2013-06-06 23:33:00,59.0,-99.9,-100.00,North,0,0.0,9.0,-999,0.03,,,0.20,,2013-06-07 03:33:00,
2013-06-06 23:44:00,59.0,-99.9,-100.00,North,0,0.0,9.0,-999,0.03,,,0.20,,2013-06-07 03:44:00,
2013-06-06 23:53:00,59.0,-99.9,-100.00,North,0,0.0,2.0,-999,0.02,,,0.20,,2013-06-07 03:53:00,